Regional Weather Roundup
Issued by NWS Upton, NY

Current Version | Previous Version | Graphics & Text | Print | Product List | Glossary Off
Versions: 1 2 3 4 5 6 7 8 9 10 11 12 13 14 15 16 17 18 19 20 21 22 23 24 25 26 27 28 29 30 31 32 33 34 35 36 37 38 39 40 41 42 43 44 45 46 47 48 49

000
ASUS41 KOKX 032308
RWROKX

REGIONAL WEATHER ROUNDUP
NATIONAL WEATHER SERVICE NEW YORK NY
700 PM EDT SUN MAY 03 2015

NOTE: "FAIR" INDICATES FEW OR NO CLOUDS BELOW 12,000 FEET WITH NO
SIGNIFICANT WEATHER AND/OR OBSTRUCTIONS TO VISIBILITY.

NYZ071-072-176-178-NJZ106-104-040000-
NEW YORK CITY METRO AREA


CITY           SKY/WX    TMP DP  RH WIND       PRES   REMARKS
CENTRAL PARK   PTCLDY    69  37  30 VRB6      30.10R
LAGUARDIA APRT MOCLDY    66  43  43 SE9       30.08R
KENNEDY INTL   PTCLDY    59  48  67 S12       30.10S
NEWARK/LIBERTY PTCLDY    73  39  29 S9        30.06S
BRNX BOT. GARD   N/A     64  43  45 SE12      30.10S
TETERBORO      MOCLDY    70  36  28 S9        30.06R
$$

NYZ177-179-078>081-040000-
LONG ISLAND NEW YORK

CITY           SKY/WX    TMP DP  RH WIND       PRES   REMARKS
FARMINGDALE    CLEAR     58  47  66 SW10      30.11R
ISLIP          MOCLDY    56  45  66 S10       30.10S
SHIRLEY        CLEAR     54  43  66 S8        30.13R
WESTHAMPTON    CLEAR     53  41  63 S8        30.13S
MONTAUK POINT    N/A     53  41  63 S8        30.14R
$$

NYZ052-065-067-040000-
HUDSON VALLEY

CITY           SKY/WX    TMP DP  RH WIND       PRES   REMARKS
WHITE PLAINS   PTCLDY    66  42  41 VRB7      30.08R
NEWBURGH       PTCLDY    75  37  25 VRB5      30.06R
MONTGOMERY     MOCLDY    72  48  42 SE3       30.04R
POUGHKEEPSIE   PTCLDY    78  38  23 CALM      30.03S
ALBANY         PTCLDY    75  39  27 S8        30.02R
$$

NJZ001-105-106-008-010-013-015-019>022-104-040000-
NEW JERSEY

CITY           SKY/WX    TMP DP  RH WIND       PRES   REMARKS
NEWARK/LIBERTY PTCLDY    73  39  29 S9        30.06S
TETERBORO      MOCLDY    70  36  28 S9        30.06R
CALDWELL       PTCLDY    74  37  26 S12       30.06R
MORRISTOWN     MOCLDY    73  39  29 S6        30.06S
SOMERVILLE     PTCLDY    76  36  23 MISG      30.04R
SUSSEX         MOCLDY    75  37  25 CALM      30.06S
ANDOVER          N/A     73  43  33 CALM      30.06S
TRENTON        CLEAR     75  37  25 SW6       30.06S
MILLVILLE      CLEAR     71  46  40 S7        30.10R
ATLANTIC CITY  CLEAR     61  49  64 SE9       30.11S
WRIGHTSTOWN    CLEAR     70  42  36 S10       30.06S
TOMS RIVER     CLEAR     68  43  40 S10       30.11S
BELMAR         CLEAR     66  43  42 S8        30.10S
$$

PAZ047>061-062-071-040000-
EASTERN PENNSYLVANIA

CITY           SKY/WX    TMP DP  RH WIND       PRES   REMARKS
PHILADELPHIA   PTCLDY    79  37  22 W10       30.07S
ALLENTOWN      PTCLDY    76  33  21 W8        30.05S
SCRANTON       MOSUNNY   76  30  18 SW3       30.06S
$$

CTZ002-004>006-009-010-012-RIZ004-006-007-MAZ004-011-015-040000-
SOUTHERN NEW ENGLAND
 IN CT

CITY           SKY/WX    TMP DP  RH WIND       PRES   REMARKS
BRADLEY INTL   MOCLDY    74  39  28 S13       30.04R
HARTFORD       PTCLDY    71  41  33 S13       30.06R
DANBURY        MOCLDY    71  39  31 S10       30.07S
WTRBRY/OXFORD  MOCLDY    66  43  42 S7        30.10R
BRIDGEPORT     MOCLDY    62  46  55 S7        30.10R
MERIDEN        PTCLDY    68  44  42 S12       30.08R
NEW HAVEN      PTCLDY    58  46  64 S7        30.10R
CHESTER        FAIR      61  45  55 S9        30.11R
GROTON         CLEAR     51  42  71 S9        30.12R
WILLIMANTIC    MOCLDY    67  45  45 S9        30.08R

 IN RI

CITY           SKY/WX    TMP DP  RH WIND       PRES   REMARKS
PROVIDENCE     PTCLDY    54  41  61 S9        30.12R
BLOCK ISLAND   CLEAR     50  43  76 S15       30.13S
WESTERLY       CLEAR     51  41  68 S7        30.14R

 IN MA

CITY           SKY/WX    TMP DP  RH WIND       PRES   REMARKS
BOSTON         MOCLDY    61  42  49 S14       30.08R
WORCESTER      MOCLDY    64  44  48 SE6       30.08R
WESTFIELD      MOCLDY    71  45  39 CALM      30.05R
PROVINCETOWN   CLEAR     50  41  71 S13       30.12S
NANTUCKET      CLEAR     48  42  80 S7        30.16R
$$

ANZ330-335-338-340-345-350-353-355-040000-
COASTAL MARINE OBSERVATIONS


STATION/POSITION TIME  SKY/WX   TEMP    WIND        PRES    VSBY  WAVE
                                AIR SEA DIR/SP/G                  HT/PER
                 (UTC)          (F)     (DEG/KT/KT) (MB)    (MI)  (FT/S)
NY HARB ENTRANCE 2250            53 52  200/ 16/ 19 1018.5          4/ 8
4S FIRE IS       2203               49                N/A           4/13
20S FIRE ISLAND  2250            51 49  180/ 12/ 14 1019.5          5/ 8
GREAT SOUTH BAY  2200            52 58  220/  6/  8   N/A
23SW MTP         2250            48 45  200/ 12/ 14 1019.9          4/ 8
HUDSON CANYON    NOT AVBL
EXECUTION ROCKS  NOT AVBL
WESTERN LI SOUND NOT AVBL
CENTRAL LI SOUND NOT AVBL
EASTERN LI SOUND 2200            55     170/ 10/ 12   N/A
ROBBINS REEF     2212            61     160/ 18/ 18 1017.0
$$


>>>>>>>>>>>>>>>>>>>>>>>>>>>> KEY <<<<<<<<<<<<<<<<<<<<<<<<<<<
>                                                          <
>     SKY/WX - SKY CONDITION/PRESENT WEATHER               <
>     TMP    - TEMPERATURE IN FAHRENHEIT                   <
>     DP     - DEWPOINT IN FAHRENHEIT                      <
>     RH     - RELATIVE HUMIDITY IN PERCENT                <
>     WIND   - DIRECTION AND SPEED IN MPH                  <
>     PRES   - MEAN SEA LEVEL PRESSURE IN INCHES OF HG     <
>     WCI    - WIND CHILL INDEX                            <
>     VSB    - VISIBILITY IN MILES                         <
>     HX     - HEAT INDEX                                  <
>     TC     - TEMPERATURE IN CELSIUS                      <
>     VRB    - VARIABLE WIND DIRECTION                     <
>                                                          <
>>>>>>>>>>>>>>>>>>>>>>>>>>>> KEY <<<<<<<<<<<<<<<<<<<<<<<<<<<




USA.gov is the U.S. government's official web portal to all federal, state and local government web resources and services.